Tracking 18851 objects as of 25-Nov-2017
HD Live streaming from Space Station
objects crossing your sky now

FENGYUN 1C DEB

Track FENGYUN 1C DEB now!
10-day predictions


NORAD ID: 30047
Int'l Code: 1999-025NY
Perigee: 840.2 km
Apogee: 1,032.1 km
Inclination: 99.9 °
Period: 103.6 minutes
Semi major axis: 7307 km
RCS: 0.038 m2 (small)
Launch date: May 10, 1999
Source: People's Republic of China (PRC)
Launch site: Taiyaun Space Center, China (TSC)

Note: This is SATELLITE DEBRIS
aabbcc
Your satellite tracking list
Your tracking list is empty




NASA's NSSDC Master Catalog

Two Line Element Set (TLE):
1 30047U 99025NY  17328.72639681 +.00000271 +00000-0 +24276-3 0  9996
2 30047 099.8587 250.6043 0131285 178.3584 212.6250 13.89887842550374
Source of the keplerian elements: AFSPC